Location: Tyumen
(57.1527°N, 65.5323°E)
Time: 04:12:29
(UTC+05:00)

ISS - Pass Details

Date: 09 July 2025
Orbit: 413 x 417 km, 51.6° (Epoch: 13 July)

Event Time Altitude Azimuth Distance (km) Brightness Sun altitude
Rises 00:19:37 0° 249° (WSW) 2,353 -0.1 -10.3°
Reaches altitude 10° 00:21:51 10° 239° (WSW) 1,492 -1.2 -10.3°
Maximum altitude 00:24:50 31° 175° (S) 760 -3.0 -10.4°
Drops below altitude 10° 00:27:51 10° 111° (ESE) 1,495 -1.2 -10.4°
Sets 00:30:05 0° 101° (E) 2,360 -0.1 -10.4°
